Terminal Aerodrome Forecast
Issued by NWS

Home | Current Version | Previous Version | Graphics & Text | Print | Product List | Glossary On
Versions: 1 2 3 4 5 6 7 8 9 10 11 12 13 14 15 16 17 18 19 20 21 22 23 24 25 26 27 28 29
000
FTUS43 KABR 290200 AAA
TAFATY
TAF AMD
KATY 290219Z 2902/2924 03012KT P6SM VCSH OVC100
     FM290400 02010KT P6SM OVC025
     FM291200 03010KT P6SM OVC010
     FM291700 06009KT P6SM OVC020
      AMD NOT SKED=

USA.gov is the U.S. government's official web portal to all federal, state and local government web resources and services.